User: anonymous
Location: Caltech
(34.1382°N, 118.1253°W)
Time: 23:14:44
(UTC-07:00)
Language:

ATLAS 5 CENTAUR R/B - Orbit

View from above orbital plane
View from above orbital plane
View from above satellite
View from above satellite

Ground track
Ground track

The orbit data is extracted from the following two-line orbital elements,

1 30778U 07006G   14208.43175222  .00028409  00000-0  40053-3 0   415
2 30778 035.6823 228.9450 0013131 204.5823 292.7863 15.55536952411174
Epoch (UTC): 27 July 2014 10:21:43
Eccentricity: 0.0013131
inclination: 35.6823°
perigee height: 391 km
apogee height: 409 km
right ascension of ascending node: 228.9450°
argument of perigee: 204.5823°
revolutions per day: 15.55536952
mean anomaly at epoch: 292.7863°
orbit number at epoch: 41117

The dashed part of the orbit path shows where the satellite is in the earth's shadow,  

DLR